{"data":{"norad_id":63915,"intl_designator":"2025-095AB","name":"STARLINK-34076","alt_names":[],"object_type":"PAYLOAD","status":"ACTIVE","operator":null,"country":"US","launch_date":"2025-05-10","launch_site_code":"AFETR","launch_vehicle":null,"mission":null,"orbit_class":"UNKNOWN","rcs_meters":null,"size_class":null,"mass_kg":null,"dimensions":null,"purposes":["comms"],"wikipedia_slug":null,"has_3d_model":false,"image_url":null,"decayed_at":null,"tle_current":{"epoch":"2026-05-25T03:48:57.235392Z","epoch_age_seconds":51530,"freshness":"FRESH","line1":"1 63915U 25095AB  26145.15899578  .00015823  00000+0  58303-3 0  9995","line2":"2 63915  42.9994 104.2786 0001097 257.4556 102.6173 15.27594126 59479","mean_motion":15.27594126,"eccentricity":0.0001097,"inclination_deg":42.9994,"raan_deg":104.2786,"arg_perigee_deg":257.4556,"mean_anomaly_deg":102.6173,"bstar":0.00058303,"rev_number":5947,"period_min":94.265877008223,"perigee_km":482.25413056516,"apogee_km":483.75946551445,"semimajor_km":6861.1437980398,"source":"CELESTRAK","updated_at":"2026-05-25T13:38:20.180821Z"}}}